This is the latest recevied weather packets stored in our database for station/object KB0RPJ. If no packets are shown the sender has not sent any weather packets the latest 10 day(s).
| Time | Temp. | Humidity | Pressure | Rain* | Wind** | Luminosity | Snow |
|---|---|---|---|---|---|---|---|
| 1777247119 | 17.78° C | 87% | 1006.4 hPa | 4.57 mm | - | 11 W/m² | - |
| 1777246805 | 17.78° C | 86% | 1006.3 hPa | 4.32 mm | - | 8 W/m² | - |
| 1777246506 | 18.33° C | 84% | 1006.7 hPa | 4.06 mm | - | 8 W/m² | - |
| 1777246206 | 18.33° C | 83% | 1006.7 hPa | 4.06 mm | - | 9 W/m² | - |
| 1777245904 | 18.89° C | 81% | 1006.8 hPa | 3.81 mm | - | 9 W/m² | - |
| 1777245606 | 19.44° C | 79% | 1006.8 hPa | 3.81 mm | - | 8 W/m² | - |
| 1777245304 | 20.56° C | 76% | 1007.1 hPa | 2.79 mm | - | 5 W/m² | - |
| 1777245017 | 21.11° C | 74% | 1007.1 hPa | 0.76 mm | - | 5 W/m² | - |
| 1777244704 | 21.11° C | 72% | 1006.7 hPa | 0.51 mm | - | 5 W/m² | - |
| 1777244407 | 21.67° C | 69% | 1006.5 hPa | 0.51 mm | - | 8 W/m² | - |
| 1777244105 | 21.67° C | 67% | 1006.5 hPa | 0.51 mm | - | 10 W/m² | - |
| 1777243806 | 22.22° C | 66% | 1006.3 hPa | 0.25 mm | - | 14 W/m² | - |
| 1777243505 | 22.22° C | 63% | 1006.2 hPa | 0.25 mm | - | 13 W/m² | - |
| 1777243206 | 22.78° C | 60% | 1006.6 hPa | 0 mm | - | 9 W/m² | - |
| 1777242905 | 22.78° C | 59% | 1006.4 hPa | 0 mm | - | 15 W/m² | - |
| 1777242605 | 22.78° C | 58% | 1006.4 hPa | 0 mm | - | 24 W/m² | - |
| 1777242305 | 22.78° C | 57% | 1006.4 hPa | 0 mm | - | 22 W/m² | - |
| 1777242005 | 22.78° C | 57% | 1006.3 hPa | 0 mm | - | 26 W/m² | - |
| 1777241704 | 23.33° C | 56% | 1006.2 hPa | 0 mm | - | 32 W/m² | - |
| 1777241405 | 23.33° C | 56% | 1006.2 hPa | 0 mm | - | 32 W/m² | - |
| 1777241105 | 23.33° C | 56% | 1006.2 hPa | 0 mm | - | 41 W/m² | - |
| 1777240805 | 23.33° C | 56% | 1006.3 hPa | 0 mm | - | 49 W/m² | - |
| 1777240505 | 23.33° C | 55% | 1006.3 hPa | 0 mm | - | 59 W/m² | - |
| 1777240205 | 23.33° C | 56% | 1006.5 hPa | 0 mm | - | 67 W/m² | - |
| 1777239905 | 23.33° C | 55% | 1006.6 hPa | 0 mm | - | 76 W/m² | - |
* Rain latest hour (hover to see other rain measurements)
** Current wind speed in m/s (hover to see current wind gust speed)